timestamp,wind_dir_avg,wind_spd_avg,wind_spd_max_dir,wind_spd_gust,battery_voltage,lat,long
2020-12-28 00:04:01+00:00,234.0,5.29,237.0,6.28,12.57,47.59359,-54.27349
2020-12-28 00:14:01+00:00,228.0,5.76,219.0,6.58,12.57,47.59359,-54.27349
2020-12-28 00:24:01+00:00,234.0,4.87,231.0,5.56,12.57,47.59359,-54.27349
2020-12-28 00:34:01+00:00,249.0,4.93,247.0,5.43,12.57,47.59359,-54.27349
2020-12-28 00:44:01+00:00,254.0,4.28,260.0,4.62,12.57,47.59359,-54.27349
2020-12-28 00:54:01+00:00,244.0,5.0,241.0,5.82,12.57,47.59359,-54.27349
2020-12-28 01:04:01+00:00,237.0,4.58,239.0,4.99,12.57,47.59359,-54.27349
2020-12-28 01:14:01+00:00,239.0,3.99,238.0,4.3,12.57,47.59359,-54.27349
2020-12-28 01:24:01+00:00,232.0,3.81,234.0,4.5,12.57,47.59359,-54.27349
2020-12-28 01:34:01+00:00,241.0,4.56,239.0,4.92,12.57,47.59359,-54.27349
2020-12-28 01:44:01+00:00,234.0,3.76,235.0,4.26,12.57,47.59359,-54.27349
2020-12-28 01:54:01+00:00,243.0,4.23,241.0,4.87,12.57,47.59359,-54.27349
2020-12-28 02:04:01+00:00,241.0,4.74,240.0,5.49,12.57,47.59359,-54.27349
2020-12-28 02:14:01+00:00,243.0,5.11,240.0,5.68,12.49,47.59359,-54.27349
2020-12-28 02:24:01+00:00,250.0,6.07,246.0,6.48,12.49,47.59359,-54.27349
2020-12-28 02:34:01+00:00,251.0,5.54,252.0,6.06,12.49,47.59359,-54.27349
2020-12-28 02:44:01+00:00,254.0,4.46,259.0,5.11,12.49,47.59359,-54.27349
2020-12-28 02:54:01+00:00,256.0,4.19,264.0,4.96,12.49,47.59359,-54.27349
2020-12-28 03:04:01+00:00,252.0,4.15,252.0,4.63,12.49,47.59359,-54.27349
2020-12-28 03:14:01+00:00,253.0,3.97,255.0,4.75,12.49,47.59359,-54.27349
2020-12-28 03:24:01+00:00,266.0,3.92,272.0,4.34,12.49,47.59359,-54.27349
2020-12-28 03:34:01+00:00,274.0,3.42,275.0,3.87,12.49,47.59359,-54.27349
2020-12-28 03:44:01+00:00,272.0,3.27,267.0,3.57,12.49,47.59359,-54.27349
2020-12-28 03:54:01+00:00,280.0,2.49,269.0,3.02,12.49,47.59359,-54.27349
2020-12-28 04:04:01+00:00,261.0,2.7,262.0,3.3,12.49,47.59359,-54.27349
2020-12-28 04:14:01+00:00,281.0,1.98,270.0,2.43,12.41,47.59359,-54.27349
2020-12-28 04:24:01+00:00,270.0,2.39,271.0,2.76,12.41,47.59359,-54.27349
2020-12-28 04:34:01+00:00,245.0,1.87,247.0,2.15,12.41,47.59359,-54.27349
2020-12-28 04:44:01+00:00,283.0,2.98,286.0,3.58,12.41,47.59359,-54.27349
2020-12-28 04:54:01+00:00,305.0,2.28,310.0,2.77,12.41,47.59359,-54.27349
2020-12-28 05:04:01+00:00,282.0,2.04,259.0,2.67,12.41,47.59359,-54.27349
2020-12-28 05:14:01+00:00,293.0,1.88,305.0,2.25,12.41,47.59359,-54.27349
2020-12-28 05:24:01+00:00,291.0,1.73,293.0,2.44,12.41,47.59359,-54.27349
2020-12-28 05:34:01+00:00,289.0,2.11,286.0,2.44,12.41,47.59359,-54.27349
2020-12-28 05:44:01+00:00,270.0,2.49,269.0,3.23,12.41,47.59359,-54.27349
2020-12-28 05:54:01+00:00,266.0,2.87,261.0,3.21,12.41,47.59359,-54.27349
2020-12-28 06:04:01+00:00,277.0,2.75,279.0,3.15,12.41,47.59359,-54.27349
2020-12-28 06:14:01+00:00,256.0,3.3,257.0,3.63,12.41,47.59359,-54.27349
2020-12-28 06:24:01+00:00,250.0,2.84,248.0,3.15,12.41,47.59359,-54.27349
2020-12-28 06:34:01+00:00,249.0,2.18,248.0,2.55,12.41,47.59359,-54.27349
2020-12-28 06:44:01+00:00,264.0,1.31,266.0,1.63,12.41,47.59359,-54.27349
2020-12-28 06:54:01+00:00,254.0,2.16,252.0,2.43,12.41,47.59359,-54.27349
2020-12-28 07:04:01+00:00,298.0,1.76,294.0,2.1,12.41,47.59359,-54.27349
2020-12-28 07:14:01+00:00,316.0,1.44,313.0,1.81,12.41,47.59359,-54.27349
2020-12-28 07:24:01+00:00,359.0,2.35,356.0,2.94,12.41,47.59359,-54.27349
2020-12-28 07:34:01+00:00,317.0,2.44,316.0,2.72,12.41,47.59359,-54.27349
2020-12-28 07:44:01+00:00,351.0,3.63,345.0,4.27,12.41,47.59359,-54.27349
2020-12-28 07:54:01+00:00,328.0,3.55,325.0,3.9,12.41,47.59359,-54.27349
2020-12-28 08:04:01+00:00,334.0,3.01,334.0,3.52,12.41,47.59359,-54.27349
2020-12-28 08:14:01+00:00,308.0,3.38,305.0,3.9,12.33,47.59359,-54.27349
2020-12-28 08:24:01+00:00,299.0,3.44,302.0,3.81,12.33,47.59359,-54.27349
2020-12-28 08:34:01+00:00,308.0,3.94,307.0,4.86,12.33,47.59359,-54.27349
2020-12-28 08:44:01+00:00,355.0,3.49,356.0,4.26,12.33,47.59359,-54.27349
2020-12-28 08:54:01+00:00,328.0,3.72,323.0,4.13,12.33,47.59359,-54.27349
2020-12-28 09:04:01+00:00,324.0,2.87,322.0,3.53,12.33,47.59359,-54.27349
2020-12-28 09:14:01+00:00,324.0,2.69,329.0,3.29,12.25,47.59359,-54.27349
2020-12-28 09:24:01+00:00,330.0,5.6,322.0,6.25,12.25,47.59359,-54.27349
2020-12-28 09:34:01+00:00,324.0,6.3,324.0,6.96,12.25,47.59359,-54.27349
2020-12-28 09:44:01+00:00,324.0,5.96,326.0,6.72,12.25,47.59359,-54.27349
2020-12-28 09:54:01+00:00,327.0,5.86,324.0,6.59,12.25,47.59359,-54.27349
2020-12-28 10:04:01+00:00,317.0,4.59,317.0,5.12,12.25,47.59359,-54.27349
2020-12-28 10:14:01+00:00,308.0,3.59,309.0,4.38,12.33,47.59359,-54.27349
2020-12-28 10:24:01+00:00,308.0,4.73,307.0,5.63,12.33,47.59359,-54.27349
2020-12-28 10:34:01+00:00,315.0,4.16,316.0,4.87,12.33,47.59359,-54.27349
2020-12-28 10:44:01+00:00,311.0,4.54,308.0,5.1,12.33,47.59359,-54.27349
2020-12-28 10:54:01+00:00,310.0,5.29,309.0,5.6,12.33,47.59359,-54.27349
2020-12-28 11:04:01+00:00,322.0,5.15,318.0,5.88,12.33,47.59359,-54.27349
2020-12-28 11:14:01+00:00,319.0,5.21,324.0,5.74,12.33,47.59359,-54.27349
2020-12-28 11:24:01+00:00,336.0,4.48,329.0,5.04,12.33,47.59359,-54.27349
2020-12-28 11:34:01+00:00,342.0,4.09,338.0,4.83,12.33,47.59359,-54.27349
2020-12-28 11:44:01+00:00,348.0,3.77,347.0,4.52,12.33,47.59359,-54.27349
2020-12-28 11:54:01+00:00,0.0,3.24,5.0,3.93,12.33,47.59359,-54.27349
2020-12-28 12:04:01+00:00,347.0,3.36,343.0,4.25,12.33,47.59359,-54.27349
2020-12-28 12:14:01+00:00,0.0,3.27,0.0,3.63,13.84,47.59359,-54.27349
2020-12-28 12:24:01+00:00,355.0,4.0,358.0,5.1,13.84,47.59359,-54.27349
2020-12-28 12:34:01+00:00,359.0,3.91,355.0,4.56,13.84,47.59359,-54.27349
2020-12-28 12:44:01+00:00,350.0,4.04,352.0,5.12,13.84,47.59359,-54.27349
2020-12-28 12:54:01+00:00,11.0,4.6,14.0,5.7,13.84,47.59359,-54.27349
2020-12-28 13:04:01+00:00,358.0,4.25,1.0,4.74,13.84,47.59359,-54.27349
2020-12-28 13:14:01+00:00,6.0,4.14,6.0,4.6,13.68,47.59359,-54.27349
2020-12-28 13:24:01+00:00,12.0,3.35,20.0,4.46,13.68,47.59359,-54.27349
2020-12-28 13:34:01+00:00,10.0,2.93,17.0,3.85,13.68,47.59359,-54.27349
2020-12-28 13:44:01+00:00,4.0,3.63,4.0,4.19,13.68,47.59359,-54.27349
2020-12-28 13:54:01+00:00,9.0,3.48,3.0,4.22,13.68,47.59359,-54.27349
2020-12-28 14:04:01+00:00,353.0,3.04,353.0,3.89,13.68,47.59359,-54.27349
2020-12-28 15:14:01+00:00,343.0,2.15,344.0,2.47,13.6,47.59359,-54.27349
2020-12-28 15:24:01+00:00,350.0,2.02,342.0,2.43,13.6,47.59359,-54.27349
2020-12-28 15:34:01+00:00,339.0,2.24,330.0,2.95,13.6,47.59359,-54.27349
2020-12-28 15:44:01+00:00,4.0,2.41,4.0,2.99,13.6,47.59359,-54.27349
2020-12-28 15:54:01+00:00,345.0,2.4,338.0,3.21,13.6,47.59359,-54.27349
2020-12-28 16:04:01+00:00,311.0,2.06,301.0,2.53,13.6,47.59359,-54.27349
2020-12-28 16:14:01+00:00,321.0,2.1,327.0,2.55,14.32,47.59359,-54.27349
2020-12-28 16:24:01+00:00,313.0,2.42,308.0,2.86,14.32,47.59359,-54.27349
2020-12-28 16:34:01+00:00,220.0,1.86,215.0,2.5,14.32,47.59359,-54.27349
2020-12-28 16:44:01+00:00,237.0,0.5,286.0,1.16,14.32,47.59359,-54.27349
2020-12-28 16:54:01+00:00,323.0,1.1,327.0,1.36,14.32,47.59359,-54.27349
2020-12-28 17:04:01+00:00,332.0,1.79,336.0,2.12,14.32,47.59359,-54.27349
2020-12-28 17:14:01+00:00,348.0,1.98,351.0,2.58,13.76,47.59359,-54.27349
2020-12-28 17:24:01+00:00,327.0,1.65,328.0,2.0,13.76,47.59359,-54.27349
2020-12-28 17:34:01+00:00,33.0,0.51,28.0,0.71,13.76,47.59359,-54.27349
2020-12-28 17:44:01+00:00,59.0,2.36,51.0,2.73,13.76,47.59359,-54.27349
2020-12-28 17:54:01+00:00,68.0,2.67,60.0,3.26,13.76,47.59359,-54.27349
2020-12-28 18:04:01+00:00,71.0,1.41,79.0,2.35,13.76,47.59359,-54.27349
2020-12-28 18:14:01+00:00,94.0,1.74,76.0,2.96,14.24,47.59359,-54.27349
2020-12-28 18:24:01+00:00,114.0,1.85,130.0,2.58,14.24,47.59359,-54.27349
2020-12-28 18:34:01+00:00,115.0,1.85,112.0,2.54,14.24,47.59359,-54.27349
2020-12-28 18:44:01+00:00,99.0,1.05,78.0,2.16,14.24,47.59359,-54.27349
2020-12-28 18:54:01+00:00,131.0,1.58,135.0,2.15,14.24,47.59359,-54.27349
2020-12-28 19:04:01+00:00,159.0,0.81,160.0,1.07,14.24,47.59359,-54.27349
2020-12-28 19:14:01+00:00,113.0,1.57,113.0,2.08,13.68,47.59359,-54.27349
2020-12-28 19:24:01+00:00,121.0,1.42,122.0,1.76,13.68,47.59359,-54.27349
2020-12-28 19:34:01+00:00,93.0,0.9,83.0,1.22,13.68,47.59359,-54.27349
2020-12-28 19:44:01+00:00,73.0,2.53,75.0,3.34,13.68,47.59359,-54.27349
2020-12-28 19:54:01+00:00,87.0,1.63,86.0,1.91,13.68,47.59359,-54.27349
2020-12-28 20:04:01+00:00,71.0,2.41,75.0,2.9,13.68,47.59359,-54.27349
2020-12-28 20:14:01+00:00,102.0,2.12,128.0,2.85,12.81,47.59359,-54.27349
2020-12-28 20:24:01+00:00,77.0,2.57,79.0,3.07,12.81,47.59359,-54.27349
2020-12-28 20:34:01+00:00,86.0,1.94,67.0,2.36,12.81,47.59359,-54.27349
2020-12-28 20:44:01+00:00,112.0,2.16,128.0,2.73,12.81,47.59359,-54.27349
2020-12-28 20:54:01+00:00,122.0,2.46,131.0,2.96,12.81,47.59359,-54.27349
2020-12-28 21:04:01+00:00,133.0,2.69,134.0,3.16,12.81,47.59359,-54.27349
2020-12-28 21:14:01+00:00,127.0,3.24,127.0,3.63,12.65,47.59359,-54.27349
2020-12-28 21:24:01+00:00,124.0,2.55,130.0,3.21,12.65,47.59359,-54.27349
2020-12-28 21:34:01+00:00,115.0,1.8,109.0,2.08,12.65,47.59359,-54.27349
2020-12-28 21:44:01+00:00,95.0,1.15,91.0,1.65,12.65,47.59359,-54.27349
2020-12-28 21:54:01+00:00,117.0,2.35,125.0,2.79,12.65,47.59359,-54.27349
2020-12-28 22:04:01+00:00,124.0,1.31,127.0,1.66,12.65,47.59359,-54.27349
2020-12-28 22:14:01+00:00,107.0,1.69,138.0,2.4,12.57,47.59359,-54.27349
2020-12-28 22:24:01+00:00,102.0,1.4,107.0,1.87,12.57,47.59359,-54.27349
2020-12-28 22:34:01+00:00,124.0,0.94,122.0,1.24,12.57,47.59359,-54.27349
2020-12-28 22:44:01+00:00,113.0,1.02,117.0,1.66,12.57,47.59359,-54.27349
2020-12-28 22:54:01+00:00,108.0,1.35,101.0,1.73,12.57,47.59359,-54.27349
2020-12-28 23:04:01+00:00,115.0,1.98,114.0,2.28,12.57,47.59359,-54.27349
2020-12-28 23:14:01+00:00,138.0,2.15,143.0,3.19,12.57,47.59359,-54.27349
2020-12-28 23:24:01+00:00,145.0,3.05,142.0,3.74,12.57,47.59359,-54.27349
2020-12-28 23:34:01+00:00,139.0,3.29,137.0,3.59,12.57,47.59359,-54.27349
2020-12-28 23:44:01+00:00,148.0,3.15,147.0,3.45,12.57,47.59359,-54.27349
2020-12-28 23:54:01+00:00,148.0,2.76,149.0,3.62,12.57,47.59359,-54.27349
